GW0147 Weather Reports


Display with metric or nautical units.
time (UTC)temp
F
wind
direction
speed
MPH
gust
MPH
rain 1hr
in
rain 24hr
in
rain mn
in
humidity
%
barometer
mb
20260503233052 54 223 5.0 19.0 0.00 0.00 0.00 53 1011.3
20260503231549 53 261 7.0 19.0 0.00 0.00 0.00 53 1011.3
20260503230048 53 262 5.0 23.0 0.00 0.00 0.00 57 1011.5
20260503224547 53 234 8.0 19.0 0.00 0.00 0.00 57 1011.8
20260503223047 52 265 8.0 22.0 0.00 0.00 0.00 57 1011.8
20260503221556 52 227 6.0 17.0 0.00 0.00 0.00 57 1011.9
20260503220047 53 268 9.0 25.0 0.00 0.00 0.00 55 1012.1
20260503214545 53 232 7.0 20.0 0.00 0.00 0.00 56 1011.9
20260503213046 53 265 9.0 21.0 0.00 0.00 0.00 56 1011.9
20260503211544 53 142 6.0 26.0 0.00 0.00 0.00 57 1011.7
20260503210044 52 196 10.0 20.0 0.00 0.00 0.00 58 1011.8
20260503204545 53 263 6.0 21.0 0.00 0.00 0.00 56 1011.9
20260503203053 52 286 10.0 26.0 0.00 0.00 0.00 56 1012.2
20260503201543 53 244 9.0 20.0 0.00 0.00 0.00 56 1012.2
20260503200040 54 229 7.0 25.0 0.00 0.00 0.00 54 1012.3
20260503194541 53 278 11.0 28.0 0.00 0.00 0.00 53 1012.6
20260503193036 53 259 8.0 19.0 0.00 0.00 0.00 55 1012.8
20260503191536 53 296 7.0 24.0 0.00 0.00 0.00 56 1013.1
20260503190032 52 257 8.0 22.0 0.00 0.00 0.00 57 1013.4
20260503184531 51 236 12.0 24.0 0.00 0.00 0.00 54 1013.5
20260503183031 53 267 10.0 22.0 0.00 0.00 0.00 51 1013.5
20260503181530 54 271 11.0 23.0 0.00 0.00 0.00 45 1013.5
20260503180029 54 234 10.0 20.0 0.00 0.00 0.00 42 1013.9
20260503174526 54 280 5.0 18.0 0.00 0.00 0.00 44 1014.1
20260503173028 53 228 9.0 20.0 0.00 0.00 0.00 43 1014.4
20260503171522 54 288 7.0 17.0 0.00 0.00 0.00 41 1014.5
20260503140108 46 310 7.0 21.0 0.00 0.00 0.00 75 1016.0
20260503081531 37 244 3.0 9.0 0.00 0.00 0.00 84 1016.2
20260503071524 35 165 1.0 4.0 0.00 0.00 0.00 87 1016.2
20260503054514 36 173 1.0 4.0 0.00 0.00 0.00 86 1016.5
20260503053012 36 173 0.0 4.0 0.00 0.00 0.00 84 1016.5
20260503051510 37 173 0.0 3.0 0.00 0.00 0.00 83 1016.6
20260503050017 38 172 0.0 3.0 0.00 0.00 0.00 82 1016.7
20260503044502 38 175 0.0 3.0 0.00 0.00 0.00 81 1016.8
20260503043105 39 223 1.0 6.0 0.00 0.00 0.00 80 1016.9
20260503041558 39 207 1.0 3.0 0.00 0.00 0.00 80 1016.9
20260503040111 40 229 1.0 4.0 0.00 0.00 0.00 79 1017.0
20260503034555 40 224 1.0 5.0 0.00 0.00 0.00 78 1016.9
20260503033054 40 248 1.0 6.0 0.00 0.00 0.00 77 1017.0
20260503031604 40 258 2.0 5.0 0.00 0.00 0.00 79 1017.0
20260503030054 40 194 1.0 5.0 0.00 0.00 0.00 79 1017.0
20260503024553 40 195 1.0 3.0 0.00 0.00 0.00 80 1017.2
20260503023052 40 180 1.0 4.0 0.00 0.00 0.00 79 1017.3
20260503021552 40 174 1.0 4.0 0.00 0.00 0.00 78 1017.4
20260503020054 40 167 0.0 4.0 0.00 0.00 0.00 76 1017.5
20260503014607 40 194 2.0 5.0 0.00 0.00 0.00 74 1017.5
20260503013050 41 215 2.0 4.0 0.00 0.00 0.00 72 1017.5
20260503011555 41 234 0.0 3.0 0.00 0.00 0.00 71 1017.4
20260503010050 41 214 0.0 4.0 0.00 0.00 0.00 73 1017.4
20260503004549 41 250 0.0 6.0 0.00 0.00 0.00 73 1017.3
20260503003049 41 271 1.0 4.0 0.00 0.00 0.00 74 1017.2
20260503001559 41 252 4.0 8.0 0.00 0.00 0.00 73 1017.2
20260503000047 41 246 2.0 6.0 0.00 0.00 0.00 74 1017.2
20260502234551 42 263 2.0 10.0 0.00 0.00 0.00 73 1017.2